Погода в Каменном

Россия / Удмуртская Республика     56°43′50″N   53°17′19″E
темп.,
°C
ветер,
м/с
пор.,
м/с
влажн.,
%
обл.,
%
осадки,
мм/ч
давл.,
гПа
погр.,
м
8 марта, пн
пн801:00−13ю51094100 0.1 1003334
04:00−12ююв61295100 0.6 1000484
07:00−10ююв51194100 0.7 996553
10:00−7юв71194100 1.2 994612
13:00−3ююз71192100 1.4 993924
16:00−4зюз101580100 2.4 9941144
19:00−7зюз6148675 0.0 998453
22:00−11зюз489348 0.0 1000135
9 марта, вт
вт901:00−13юз349655 0.0 100055
04:00−13зюз239578 0.0 100022
07:00−15зюз479775 0.0 1003112
10:00−11з469587 0.0 1006268
13:00−7з348597 0.0 1008599
16:00−7зюз348898 0.1 1009582
19:00−10зюз1195100 0.3 100931
22:00−11ссз1297100 0.4 101021
10 марта, ср
ср1001:00−13ссв489697 0.2 1009215
04:00−17ссв6119496 0.2 1009321
07:00−19ссв61195100 0.1 1010406
10:00−20с61189100 0.2 1010411
13:00−17с71181100 0.0 1011597
16:00−16с71179100 0.0 1012776
19:00−20ссз5128779 0.0 1014333
22:00−22ссз4129066 0.0 1015287
11 марта, чт
чт1101:00−24сз479446 0.0 1015137
04:00−26сз479734 0.0 101699
07:00−26зсз479827 0.0 1016135
10:00−20зсз479464 0.1 1016325
13:00−15зсз5892100 0.1 1016432
16:00−12зсз5990100 0.2 1015608
19:00−11з61391100 0.1 1015467
22:00−9сз51191100 0.1 1016530
12 марта, пт
пт1201:00−11сз51091100 0.0 1018362
04:00−15сз5109395 0.0 1020246
07:00−19зсз499635 0.0 1022164
10:00−14сз599037 0.0 1024383
13:00−9зсз597658 0.0 1025627
16:00−7зсз697865 0.0 1025938
19:00−10з51186100 0.0 1026312
22:00−12з41090100 0.0 1027226